Location: Goettingen
(51.5300°N, 9.9433°E)
Time: 19:40:01
(UTC+02:00)

ISS - Pass Details

Date: 19 July 2019
Orbit: 409 x 418 km, 51.6° (Epoch: 20 July)

Event Time Altitude Azimuth Distance (km) Brightness Sun altitude
Rises 22:13:15 0° 224° (SW) 2,346 0.0 -6.3°
Reaches altitude 10° 22:15:29 10° 214° (SW) 1,485 -1.1 -6.5°
Maximum altitude 22:18:28 31° 150° (SSE) 757 -3.0 -6.8°
Drops below altitude 10° 22:21:27 10° 87° (E) 1,487 -1.3 -7.1°
Sets 22:23:41 0° 76° (ENE) 2,350 -0.2 -7.4°
